Вернуться в каталог

STARLINK-37875

АктивенСвязьVLEO
NORAD 69967·PAYLOAD·🇺🇸 United States

Запущен Jul 9, 2026 с Cape Canaveral Space Force Station

Loading…

Ближайшие Пролёты (ближайшие 24 часа)

TLE

СвежийSource: CelesTrak SupGP

Эпоха: Sep 15, 2026, 04:05 UTC

1 69967C 26157AA  26258.17062500  .00072509  00000+0  21420-2 0  2583
2 69967  53.1601 358.5101 0001062  87.2321   8.9510 15.34358390    15

Отслеживайте STARLINK-37875 в реальном времени с AllMySat

Download on the App Store